Location: Drocourt
(49.0571°N, 1.7669°E)
Time: 21:28:32
(UTC+00:00)

S-56A Canister/Altair - Pass Details

Date: 18 April 2024
Orbit: 638 x 2488 km, 38.9° (Epoch: 20 May)

Event Time Altitude Azimuth Distance (km) Brightness Sun altitude
Rises 20:00:50 0° 258° (WSW) 3,767 11.8 -11.3°
Reaches altitude 10° 20:03:16 10° 251° (WSW) 3,017 11.1 -11.6°
Maximum altitude 20:10:20 43° 183° (S) 1,981 9.4 -12.6°
Enters shadow 20:18:20 17° 123° (ESE) 3,712 10.3 -13.6°
Drops below altitude 10° 20:20:38 10° 118° (ESE) 4,383 - -13.9°
Sets 20:24:56 0° 113° (ESE) 5,641 - -14.5°
